Tracking 19795 objects as of 19-Jul-2019
HD Live streaming from Space Station
objects crossing your sky now

SCOUT G-1 DEB

Track SCOUT G-1 DEB now!
10-day predictions


NORAD ID: 43330
Int'l Code: 1988-033L
Perigee: 1,006.8 km
Apogee: 1,304.3 km
Inclination: 90.4 °
Period: 108.3 minutes
Semi major axis: 7526 km
RCS: Unknown
Launch date: April 26, 1988
Source: United States (US)
Launch site: AIR FORCE WESTERN TEST RANGE (AFWTR)

Note: This is SATELLITE DEBRIS
aabbcc
Your satellite tracking list
Your tracking list is empty




NASA's NSSDC Master Catalog

Two Line Element Set (TLE):
1 43330U 88033L   19196.02859413  .00000059  00000-0  10000-3 0  9991
2 43330  90.3559 297.3350 0197584 203.2414 159.4222 13.29560088323178
Source of the keplerian elements: AFSPC